Location: B�hlr�ti
(46.8833°N, 8.5167°E)
Time: 11:24:37
(UTC+00:00)

Daily predictions for brighter satellites

Satellite Brightness Start Highest point End
(mag) Time Altitude Azimuth Time Altitude Azimuth Time Altitude Azimuth
BREEZE-M DEB (TANK) 4.1 15:58:09 10° W 16:01:55 79° NNW 16:14:52 10° ENE
Cosmos 44 3.5 16:02:08 10° NW 16:07:27 78° NE 16:12:53 10° SE
PSLV R/B 3.9 16:05:05 10° SSE 16:09:09 70° ENE 16:13:11 10° N
CZ-4B R/B 3.5 16:04:39 10° SE 16:09:38 43° ENE 16:14:37 10° N
CZ-4B R/B 4.1 16:06:10 10° S 16:10:18 51° W 16:14:38 10° NNW
H-2A R/B 2.5 16:08:16 10° SSE 16:12:25 57° ENE 16:16:25 10° N
MOS 1-B 4.4 16:09:05 10° SSE 16:14:52 75° ENE 16:20:41 10° NNW
Cosmos 2369 Rocket 2.9 16:09:49 10° NNW 16:14:55 32° NE 16:19:56 10° ESE
Cosmos 1943 Rocket 2.4 16:11:19 10° NNW 16:16:42 47° ENE 16:22:04 10° SE
ADEOS Rocket 3.7 16:09:39 10° NNE 16:17:29 81° ESE 16:25:10 10° SSW
Cosmos 2221 4.3 16:15:18 10° SW 16:19:13 33° WNW 16:23:08 10° N
NOAA 12 4.3 16:14:08 10° SE 16:19:14 49° ENE 16:24:21 10° N
H-2A R/B 2.4 16:17:38 10° NNE 16:21:43 46° E 16:25:52 10° S
NOAA 6 4.1 16:20:47 10° SSE 16:25:56 88° ENE 16:31:07 10° NNW
Okean O Rocket 1.9 16:21:51 10° SE 16:26:01 46° ENE 16:30:14 10° N
Cosmos 1782 4.0 16:23:37 10° SE 16:26:47 23° E 16:29:58 10° NE
Okean-O 4.3 16:26:00 10° E 16:28:01 13° ENE 16:30:03 10° NNE
CRYOSAT 2 4.4 16:24:18 10° N 16:29:11 67° E 16:34:04 10° S
ISS -2.8 16:27:07 10° WNW 16:30:15 35° N 16:32:58 13° ENE
Cosmos 1633 Rocket 3.1 16:26:11 10° N 16:30:30 56° ENE 16:34:46 10° SSE
H-2A R/B 3.5 16:26:44 10° S 16:30:31 57° W 16:34:23 10° NNW
Cosmos 1933 3.4 16:28:21 10° S 16:32:19 56° E 16:36:20 10° NNE
Cosmos 2218 Rocket 4.0 16:30:52 10° N 16:36:57 57° ENE 16:42:59 10° SSE
Cosmos 2366 rocket 4.0 16:31:49 10° N 16:37:54 56° ENE 16:43:55 10° SSE
ERS-2 3.4 16:36:10 12° NE 16:38:43 21° E 16:41:33 10° SSE
Meteor 1-25 Rocket 4.2 16:33:06 10° N 16:38:46 70° ENE 16:44:27 10° SSE
Cosmos 1867 4.0 16:33:35 10° SW 16:38:57 60° NW 16:44:23 10° NNE
Envisat 3.5 16:37:10 10° S 16:42:13 67° W 16:47:18 10° NNW
Lacrosse 5 rocket 1.5 16:43:54 10° WSW 16:47:30 53° NNW 16:50:15 15° NE
Cosmos 773 Rocket 4.0 16:43:23 10° SSW 16:48:36 72° ESE 16:53:54 10° NNE
SL-23 DEB 4.4 16:45:28 10° SW 16:48:53 49° SE 16:52:39 17° ENE
NOSS 3-2 (A) 4.5 16:46:51 10° SSE 16:51:09 23° ESE 16:54:01 16° ENE
YAOGAN 6 3.4 16:47:46 10° S 16:51:20 54° W 16:54:52 10° NNW
Cosmos 1606 3.9 16:50:22 10° SSW 16:54:06 44° WNW 16:57:49 10° N
Cosmos 2297 4.4 16:48:53 10° NNW 16:54:28 58° WSW 17:00:03 10° S
OE (NEXTSAT) 4.4 16:52:49 10° W 16:56:16 77° S 16:58:30 20° E
FengYun 1-2 T 4.1 16:50:56 10° SSE 16:56:25 71° ENE 17:01:55 10° N
AQUARIUS 4.2 16:51:56 10° SSE 16:56:26 89° WSW 17:00:57 10° NNW
Feng Yun 1-1 Rocket 4.4 16:51:05 10° SE 16:56:35 50° ENE 17:01:58 10° N
CZ-4B R/B 1.7 16:56:26 19° NE 16:58:19 39° E 17:01:18 10° S
SL-16 R/B 2.5 16:53:04 10° SW 16:58:42 70° WNW 17:04:23 10° NNE
Landsat 5 4.3 16:55:00 10° N 16:59:22 56° WNW 17:03:47 10° SSW
BREEZE-M DEB (TANK) 1.4 17:00:29 10° WSW 17:02:53 74° SSE 17:03:26 41° E
USA 215 4.2 16:59:20 17° ENE 17:03:19 31° SE 17:08:57 10° S
SMAP 3.5 17:00:51 10° S 17:05:28 65° WSW 17:10:07 10° NNW
Cosmos 1500 3.8 17:02:33 10° N 17:06:02 33° ENE 17:09:32 10° SE
YAOGAN 1 3.6 17:09:18 25° ENE 17:09:18 25° ENE 17:12:48 10° N
USA 238 DEB 4.4 17:04:34 10° S 17:10:10 31° ESE 17:13:06 22° ENE
USA 238 4.4 17:04:41 10° S 17:10:16 30° ESE 17:13:10 22° ENE
Cosmos 1656 Rocket 3.9 17:05:11 10° NNW 17:10:37 45° NE 17:15:56 10° SE
Cosmos 1151 Rocket 3.3 17:08:13 10° SSW 17:12:28 68° W 17:16:44 10° N
Cosmos 1470 Rocket 3.4 17:08:41 10° N 17:13:02 88° E 17:17:21 10° S
MOS 1 Rocket 4.5 17:13:25 23° ENE 17:15:16 28° E 17:19:48 10° SSE
Cosmos 2263 4.1 17:13:56 10° NNW 17:19:32 65° ENE 17:25:05 10° SE
Cosmos 1515 Rocket 3.4 17:16:04 10° S 17:20:26 75° E 17:24:53 10° NNE
CZ-2C R/B 3.3 17:16:38 10° SE 17:21:14 40° ENE 17:25:43 10° N
Cosmos 923 Rocket 4.5 17:18:23 10° S 17:23:09 38° ESE 17:24:50 30° ENE
Cosmos 1238 Rocket 3.4 17:21:22 10° N 17:25:09 39° ENE 17:29:40 10° SSE
COSMO-SKYMED 1 2.6 17:23:06 20° NNE 17:25:59 57° E 17:30:14 10° S
TELKOM 3 4.1 17:24:14 10° WNW 17:26:18 37° NNW 17:26:18 37° NNW
Cosmos 1689 Rocket 4.4 17:29:01 14° SSE 17:29:01 14° SSE 17:29:38 10° SSE
USA 281 3.4 17:21:54 10° SE 17:28:10 50° NE 17:34:28 10° NNW
X-37B 0.9 17:26:01 10° WSW 17:29:07 51° S 17:29:28 48° SE
YAOGAN 3 4.5 17:25:02 10° SSE 17:29:23 86° ENE 17:33:47 10° NNW
SAR-Lupe-4 3.7 17:29:13 49° E 17:29:33 51° E 17:33:03 10° S
Nadezhda 3 Rocket 4.1 17:23:41 10° SSE 17:29:50 54° E 17:36:00 10° NNE
Helios 1A Rocket 3.4 17:33:25 39° NE 17:33:25 39° NE 17:36:32 10° N
Meteor 2-6 Rocket 4.2 17:27:26 10° S 17:32:52 57° E 17:37:14 15° NNE
Cosmos 2228 Rocket 3.2 17:28:40 10° SSE 17:33:03 50° E 17:34:29 36° NE
Meteor 1-4 Rocket 3.4 17:30:59 10° SSW 17:34:27 49° WNW 17:37:26 13° N
H-2A R/B 2.4 17:35:18 36° E 17:36:06 38° ENE 17:40:49 10° N
Cosmos 1812 2.8 17:33:09 10° S 17:36:35 50° ESE 17:36:35 50° ESE
USA 267 3.5 17:34:11 30° E 17:37:13 51° NNE 17:43:30 10° NW
Cosmos 1821 Rocket 3.9 17:31:35 10° N 17:37:51 69° E 17:44:09 10° SSE
Cosmos 1939 Rocket 2.9 17:34:48 10° S 17:38:41 75° W 17:42:38 10° NNW
CZ-4 R/B 4.3 17:36:19 10° SSE 17:40:27 79° ENE 17:44:37 10° N
CZ-4 R/B 1.5 17:41:27 50° NE 17:41:27 50° NE 17:44:53 10° N
Meteor 1-11 Rocket 3.9 17:35:19 10° N 17:40:54 48° ENE 17:46:34 10° SSE
NOSS 3-3 (A) 4.5 17:34:16 10° NW 17:41:40 68° NE 17:47:58 19° SE
NOSS 3-3 (C) 4.5 17:34:21 10° NW 17:41:45 67° NE 17:47:58 19° SE
PSLV R/B 3.9 17:42:19 56° E 17:42:20 56° E 17:46:19 10° S
Cosmos 1933 Rocket 3.9 17:38:38 10° NNW 17:43:05 67° W 17:47:29 10° S
Cosmos 44 Rocket 3.4 17:38:01 10° NNW 17:43:10 65° NE 17:45:09 37° ESE
BREEZE-M DEB (TANK) 3.7 17:40:25 10° SSW 17:42:53 21° SSE 17:42:53 21° SSE
CSL-04 Rocket 4.1 17:44:05 38° NE 17:44:05 38° NE 17:48:29 10° N
IRS-1C Rocket 4.1 17:39:42 10° SSE 17:44:59 87° WSW 17:50:19 10° NNW
SAR-Lupe-1 3.9 17:46:35 80° ESE 17:46:35 80° ESE 17:50:07 10° SSW
Lacrosse 4 Rocket 3.5 17:46:08 10° SSE 17:46:58 15° SSE 17:46:58 15° SSE
Cosmos 1680 Rocket 3.6 17:44:54 10° S 17:49:58 49° ESE 17:50:19 49° E
SL-24 R/B 3.6 17:49:33 63° N 17:50:07 89° WNW 17:53:46 10° SSW
Cosmos 1603 3.6 17:48:36 10° SSW 17:54:14 88° WNW 17:56:56 32° NNE
CZ-2D R/B 3.5 17:51:45 10° S 17:55:32 68° WSW 17:59:23 10° NNW
H-2A R/B 4.5 17:54:19 10° NNW 17:57:24 20° WNW 18:00:32 10° WSW
Cosmos 1943 3.1 17:51:56 10° SSW 17:57:36 87° ESE 17:59:58 37° NNE
Cosmos 2369 Rocket 3.1 17:53:42 10° NW 17:59:10 49° WSW 18:04:33 10° S
Cosmos 1943 Rocket 4.1 17:55:27 10° NW 18:00:13 30° WSW 18:04:58 10° SSW
Meteor 1-5 Rocket 4.4 17:55:26 10° NNW 18:01:22 78° W 18:07:04 10° S
Okean O Rocket 4.3 17:59:25 10° SW 18:02:36 20° W 18:05:50 10° NW
Okean-O 2.6 17:59:26 10° SSE 18:03:51 84° WSW 18:08:19 10° NNW
Cosmos 1461 4.3 18:00:04 10° S 18:02:44 30° SSE 18:02:44 30° SSE
Cosmos 1371 Rocket 4.2 17:59:20 10° NNW 18:03:40 52° NNE 18:03:40 52° NNE
ARGOS 4.0 18:08:32 35° NNE 18:08:32 35° NNE 18:11:47 10° N
ISS -1.9 18:04:10 10° WNW 18:05:55 27° NW 18:05:55 27° NW
CENTAUR R/B 2.6 18:02:09 10° SSW 18:07:44 49° ESE 18:07:44 49° ESE
Cosmos 2112 Rocket 4.1 18:05:18 10° S 18:09:54 58° SE 18:09:54 58° SE
Cosmos 2056 Rocket 4.0 18:05:31 10° NNW 18:09:29 46° NNE 18:09:29 46° NNE
ERS-2 3.9 18:10:45 22° NNW 18:12:17 30° WNW 18:15:31 10° SW
NOSS 3-2 (C) 3.6 18:10:25 10° SSW 18:15:09 50° SE 18:15:09 50° SE
Cosmos 1869 Rocket 3.8 18:13:21 10° NNW 18:22:43 - S 18:17:49 70° W
BREEZE-M DEB (TANK) 3.6 18:13:36 10° WSW 18:19:59 56° SSW 18:19:59 56° SSW
Meteor 1-27 Rocket 4.0 18:16:04 10° S 18:20:11 51° SSE 18:20:11 51° SSE
Meteor 1-10 Rocket 4.4 18:20:28 10° SSW 18:26:04 67° WNW 18:28:49 31° N
Lacrosse 5 rocket 3.6 18:24:36 10° WNW 18:25:53 16° NW 18:25:53 16° NW
Cosmos 371 Rocket 4.2 18:24:52 10° NNW 18:28:01 40° NNW 18:28:01 40° NNW
CZ-4B R/B 4.4 18:29:34 12° NW 18:30:14 12° WNW 18:31:38 10° W
NOSS 3-2 (A) 3.5 18:35:30 10° SW 18:41:11 71° NW 18:41:27 70° NNW
YAOGAN 1 4.3 18:46:28 30° WNW 18:46:28 30° WNW 18:49:14 10° NNW
USA 215 3.1 18:46:42 86° NNE 18:46:50 87° NW 18:53:23 10° WSW
MOS 1 Rocket 4.5 18:52:43 43° NW 18:53:39 47° WNW 18:58:47 10° SW
USA 238 DEB 3.8 18:54:04 10° SW 19:00:35 65° NW 19:00:35 65° NW
USA 238 3.8 18:54:09 10° SW 19:00:39 66° NW 19:00:39 66° NW
USA 281 4.4 19:06:46 10° S 19:12:47 38° WSW 19:18:51 10° NW
H-2A R/B 3.7 19:15:55 31° W 19:15:55 31° W 19:20:09 10° NNW
CZ-4 R/B 4.5 19:17:28 13° WNW 19:17:28 13° WNW 19:18:29 10° WNW
USA 267 3.8 19:21:32 55° WNW 19:21:32 55° WNW 19:26:38 10° NW
CENTAUR R/B 4.4 19:52:37 10° WSW 19:54:58 24° W 19:54:58 24° W
